| time (UTC) | temp F | wind direction | speed knots | gust knots | rain 1hr in | rain 24hr in | rain mn in | humidity % | barometer mb |
| 20260506104505 | 61 | 226 | 3.5 | 7.0 | 0.00 | 0.00 | 0.00 | 67 | 1006.2 |
| 20260506103504 | 62 | 233 | 3.5 | 6.1 | 0.00 | 0.00 | 0.00 | 67 | 1006.5 |
| 20260506102000 | 62 | 229 | 3.5 | 6.1 | 0.00 | 0.00 | 0.00 | 66 | 1006.7 |
| 20260506100959 | 62 | 229 | 3.5 | 5.2 | 0.00 | 0.00 | 0.00 | 65 | 1006.7 |
| 20260506095956 | 63 | 232 | 2.6 | 6.1 | 0.00 | 0.00 | 0.00 | 64 | 1006.8 |
| 20260506094954 | 63 | 270 | 1.7 | 3.5 | 0.00 | 0.00 | 0.00 | 66 | 1006.9 |
| 20260506093953 | 63 | 228 | 1.7 | 5.2 | 0.00 | 0.00 | 0.00 | 68 | 1006.9 |
| 20260506092950 | 62 | 235 | 1.7 | 5.2 | 0.00 | 0.00 | 0.00 | 69 | 1006.7 |
| 20260506091948 | 61 | 249 | 1.7 | 5.2 | 0.00 | 0.00 | 0.00 | 69 | 1006.8 |
| 20260506090946 | 60 | 234 | 1.7 | 3.5 | 0.00 | 0.00 | 0.00 | 71 | 1006.8 |
| 20260506085943 | 60 | 225 | 1.7 | 5.2 | 0.00 | 0.00 | 0.00 | 72 | 1006.9 |
| 20260506084941 | 59 | 206 | 0.9 | 2.6 | 0.00 | 0.00 | 0.00 | 73 | 1007.0 |
| 20260506083939 | 58 | 237 | 1.7 | 3.5 | 0.00 | 0.00 | 0.00 | 73 | 1007.0 |
| 20260506082938 | 58 | 235 | 2.6 | 5.2 | 0.00 | 0.00 | 0.00 | 74 | 1007.0 |
| 20260506081935 | 58 | 237 | 1.7 | 4.3 | 0.00 | 0.00 | 0.00 | 76 | 1007.1 |
| 20260506080933 | 57 | 241 | 2.6 | 6.1 | 0.00 | 0.00 | 0.00 | 76 | 1007.1 |
| 20260506072925 | 56 | 243 | 1.7 | 3.5 | 0.00 | 0.00 | 0.00 | 80 | 1007.0 |
| 20260506071925 | 55 | 255 | 1.7 | 3.5 | 0.00 | 0.00 | 0.00 | 81 | 1007.0 |
| 20260506070921 | 55 | 246 | 1.7 | 3.5 | 0.00 | 0.00 | 0.00 | 82 | 1007.0 |
| 20260506061912 | 55 | 247 | 1.7 | 3.5 | 0.00 | 0.00 | 0.00 | 79 | 1007.2 |
| 20260506060909 | 55 | 250 | 1.7 | 3.5 | 0.00 | 0.00 | 0.00 | 78 | 1007.2 |
| 20260506050857 | 51 | 255 | 1.7 | 3.5 | 0.00 | 0.00 | 0.00 | 80 | 1007.3 |
| 20260506044913 | 51 | 256 | 1.7 | 3.5 | 0.00 | 0.00 | 0.00 | 82 | 1007.5 |
| 20260506043911 | 51 | 260 | 1.7 | 3.5 | 0.00 | 0.00 | 0.00 | 80 | 1007.6 |
| 20260506042849 | 51 | 238 | 1.7 | 3.5 | 0.00 | 0.00 | 0.00 | 80 | 1007.7 |
| 20260506041908 | 51 | 234 | 0.9 | 2.6 | 0.00 | 0.00 | 0.00 | 79 | 1007.7 |
| 20260506040845 | 51 | 226 | 1.7 | 3.5 | 0.00 | 0.00 | 0.00 | 79 | 1007.8 |
| 20260506035844 | 51 | 230 | 1.7 | 3.5 | 0.00 | 0.00 | 0.00 | 80 | 1008.0 |
| 20260506034902 | 51 | 240 | 1.7 | 3.5 | 0.00 | 0.00 | 0.00 | 80 | 1008.1 |
| 20260506033919 | 51 | 229 | 1.7 | 3.5 | 0.00 | 0.00 | 0.00 | 79 | 1008.2 |
| 20260506032838 | 51 | 247 | 1.7 | 3.5 | 0.00 | 0.00 | 0.00 | 79 | 1008.3 |
| 20260506031835 | 51 | 242 | 1.7 | 4.3 | 0.00 | 0.00 | 0.00 | 79 | 1008.4 |
| 20260506030853 | 51 | 228 | 0.9 | 2.6 | 0.00 | 0.00 | 0.00 | 79 | 1008.4 |
| 20260506025831 | 51 | 252 | 1.7 | 4.3 | 0.00 | 0.00 | 0.00 | 79 | 1008.6 |
| 20260506024829 | 51 | 244 | 1.7 | 3.5 | 0.00 | 0.00 | 0.00 | 79 | 1008.7 |
| 20260506023827 | 51 | 252 | 1.7 | 3.5 | 0.00 | 0.00 | 0.00 | 78 | 1009.0 |
| 20260506022825 | 51 | 233 | 0.9 | 2.6 | 0.00 | 0.00 | 0.00 | 78 | 1009.2 |
| 20260506021843 | 51 | 230 | 0.9 | 2.6 | 0.00 | 0.00 | 0.00 | 78 | 1009.1 |
| 20260506020821 | 51 | 220 | 1.7 | 3.5 | 0.00 | 0.00 | 0.00 | 78 | 1009.3 |
| 20260506015819 | 52 | 246 | 1.7 | 4.3 | 0.00 | 0.00 | 0.00 | 78 | 1009.2 |
| 20260506014817 | 52 | 240 | 1.7 | 3.5 | 0.00 | 0.00 | 0.00 | 77 | 1009.2 |
| 20260506013816 | 52 | 227 | 0.9 | 2.6 | 0.00 | 0.00 | 0.00 | 77 | 1009.4 |
| 20260506012813 | 52 | 223 | 1.7 | 4.3 | 0.00 | 0.00 | 0.00 | 77 | 1009.4 |
| 20260506011811 | 52 | 235 | 1.7 | 3.5 | 0.00 | 0.00 | 0.00 | 76 | 1009.5 |
| 20260506010809 | 52 | 249 | 1.7 | 3.5 | 0.00 | 0.00 | 0.00 | 76 | 1009.5 |
| 20260506005807 | 52 | 244 | 1.7 | 3.5 | 0.00 | 0.00 | 0.00 | 76 | 1009.5 |
| 20260506004805 | 52 | 220 | 1.7 | 3.5 | 0.00 | 0.00 | 0.00 | 76 | 1009.4 |
| 20260506003803 | 52 | 231 | 1.7 | 3.5 | 0.00 | 0.00 | 0.00 | 76 | 1009.7 |
| 20260506002801 | 52 | 270 | 1.7 | 3.5 | 0.00 | 0.00 | 0.00 | 76 | 1009.9 |
| 20260506001759 | 52 | 248 | 1.7 | 3.5 | 0.00 | 0.00 | 0.00 | 75 | 1010.0 |
| 20260506000757 | 52 | 236 | 1.7 | 3.5 | 0.00 | 0.00 | 0.00 | 75 | 1010.1 |
| 20260505235755 | 52 | 240 | 1.7 | 3.5 | 0.00 | 0.00 | 0.00 | 75 | 1010.0 |
| 20260505234753 | 52 | 245 | 1.7 | 3.5 | 0.00 | 0.00 | 0.00 | 75 | 1009.9 |
| 20260505233811 | 52 | 241 | 1.7 | 2.6 | 0.00 | 0.00 | 0.00 | 74 | 1010.0 |
| 20260505232749 | 52 | 237 | 0.9 | 1.7 | 0.00 | 0.00 | 0.00 | 74 | 1010.1 |
| 20260505231747 | 53 | 225 | 1.7 | 3.5 | 0.00 | 0.00 | 0.00 | 73 | 1010.2 |
| 20260505230745 | 53 | 248 | 1.7 | 3.5 | 0.00 | 0.00 | 0.00 | 72 | 1010.1 |
| 20260505225743 | 53 | 215 | 0.9 | 3.5 | 0.00 | 0.00 | 0.00 | 71 | 1010.2 |
| 20260505224740 | 54 | 229 | 1.7 | 3.5 | 0.00 | 0.00 | 0.00 | 69 | 1010.2 |
| 20260505223740 | 55 | 221 | 1.7 | 3.5 | 0.00 | 0.00 | 0.00 | 69 | 1010.2 |
| 20260505222737 | 55 | 232 | 1.7 | 4.3 | 0.00 | 0.00 | 0.00 | 69 | 1010.2 |
| 20260505221756 | 55 | 245 | 1.7 | 3.5 | 0.00 | 0.00 | 0.00 | 69 | 1010.1 |
| 20260505220733 | 56 | 225 | 1.7 | 3.5 | 0.00 | 0.00 | 0.00 | 69 | 1010.2 |
| 20260505215731 | 56 | 226 | 1.7 | 4.3 | 0.00 | 0.00 | 0.00 | 69 | 1010.3 |
| 20260505214749 | 56 | 234 | 1.7 | 3.5 | 0.00 | 0.00 | 0.00 | 68 | 1010.4 |
| 20260505213727 | 57 | 216 | 0.9 | 4.3 | 0.00 | 0.00 | 0.00 | 68 | 1010.6 |
| 20260505212725 | 57 | 207 | 0.9 | 3.5 | 0.00 | 0.00 | 0.00 | 68 | 1010.5 |
| 20260505211723 | 57 | 225 | 1.7 | 3.5 | 0.00 | 0.00 | 0.00 | 68 | 1010.5 |
| 20260505210741 | 58 | 228 | 1.7 | 3.5 | 0.00 | 0.00 | 0.00 | 67 | 1010.4 |
| 20260505205719 | 58 | 223 | 1.7 | 3.5 | 0.00 | 0.00 | 0.00 | 67 | 1010.4 |
| 20260505204717 | 58 | 222 | 1.7 | 3.5 | 0.00 | 0.00 | 0.00 | 67 | 1010.3 |
| 20260505203715 | 58 | 216 | 1.7 | 3.5 | 0.00 | 0.00 | 0.00 | 67 | 1010.2 |
| 20260505202714 | 58 | 225 | 1.7 | 4.3 | 0.00 | 0.00 | 0.00 | 67 | 1010.2 |
| 20260505201711 | 59 | 223 | 1.7 | 4.3 | 0.00 | 0.00 | 0.00 | 66 | 1010.0 |
| 20260505200709 | 59 | 203 | 1.7 | 3.5 | 0.00 | 0.00 | 0.00 | 66 | 1010.0 |
| 20260505195707 | 60 | 215 | 1.7 | 4.3 | 0.00 | 0.00 | 0.00 | 67 | 1009.9 |
| 20260505194705 | 60 | 237 | 2.6 | 5.2 | 0.00 | 0.00 | 0.00 | 68 | 1009.8 |
| 20260505193703 | 60 | 225 | 1.7 | 3.5 | 0.00 | 0.00 | 0.00 | 67 | 1009.7 |
| 20260505192702 | 60 | 203 | 1.7 | 3.5 | 0.00 | 0.00 | 0.00 | 67 | 1009.6 |
| 20260505191719 | 61 | 128 | 1.7 | 5.2 | 0.00 | 0.00 | 0.00 | 64 | 1009.4 |
| 20260505190658 | 61 | 220 | 2.6 | 5.2 | 0.00 | 0.00 | 0.00 | 66 | 1009.2 |
| 20260505185655 | 61 | 64 | 1.7 | 2.6 | 0.00 | 0.00 | 0.00 | 66 | 1009.1 |
| 20260505184653 | 61 | 225 | 2.6 | 6.1 | 0.00 | 0.00 | 0.00 | 69 | 1009.0 |
| 20260505183651 | 61 | 90 | 1.7 | 3.5 | 0.00 | 0.00 | 0.00 | 70 | 1009.1 |
| 20260505182649 | 61 | 90 | 1.7 | 3.5 | 0.00 | 0.00 | 0.00 | 72 | 1009.1 |
| 20260505181707 | 61 | 90 | 1.7 | 3.5 | 0.00 | 0.00 | 0.00 | 72 | 1009.1 |
| 20260505180645 | 61 | 205 | 1.7 | 3.5 | 0.00 | 0.00 | 0.00 | 73 | 1008.9 |
| 20260505175724 | 61 | 219 | 2.6 | 6.1 | 0.00 | 0.00 | 0.00 | 73 | 1008.9 |
| 20260505174701 | 62 | 213 | 2.6 | 5.2 | 0.00 | 0.00 | 0.00 | 72 | 1008.6 |
| 20260505173639 | 62 | 217 | 2.6 | 5.2 | 0.00 | 0.00 | 0.00 | 72 | 1008.5 |
| 20260505172636 | 62 | 222 | 2.6 | 4.3 | 0.00 | 0.00 | 0.00 | 72 | 1008.3 |
| 20260505171635 | 62 | 218 | 2.6 | 6.1 | 0.00 | 0.00 | 0.00 | 71 | 1008.2 |
| 20260505170633 | 62 | 225 | 2.6 | 5.2 | 0.00 | 0.00 | 0.00 | 71 | 1008.1 |
| 20260505165632 | 62 | 220 | 3.5 | 6.1 | 0.00 | 0.00 | 0.00 | 71 | 1008.1 |
| 20260505164629 | 63 | 215 | 2.6 | 6.1 | 0.00 | 0.00 | 0.00 | 71 | 1008.0 |
| 20260505163628 | 63 | 220 | 3.5 | 6.1 | 0.00 | 0.00 | 0.00 | 71 | 1007.9 |
| 20260505162625 | 63 | 225 | 3.5 | 6.1 | 0.00 | 0.00 | 0.00 | 70 | 1007.8 |
| 20260505161623 | 63 | 219 | 3.5 | 6.1 | 0.00 | 0.00 | 0.00 | 69 | 1007.8 |
| 20260505160621 | 63 | 220 | 3.5 | 7.8 | 0.00 | 0.00 | 0.00 | 69 | 1007.8 |
| 20260505152634 | 64 | 215 | 2.6 | 7.0 | 0.00 | 0.00 | 0.00 | 67 | 1007.5 |
| 20260505151611 | 64 | 229 | 3.5 | 7.0 | 0.00 | 0.00 | 0.00 | 69 | 1007.6 |
| 20260505150609 | 64 | 225 | 3.5 | 7.0 | 0.00 | 0.00 | 0.00 | 69 | 1007.5 |
| 20260505140558 | 64 | 225 | 3.5 | 9.6 | 0.00 | 0.00 | 0.00 | 68 | 1007.6 |
| 20260505124541 | 64 | 237 | 3.5 | 8.7 | 0.00 | 0.00 | 0.00 | 68 | 1008.2 |
| 20260505123540 | 63 | 230 | 2.6 | 6.1 | 0.00 | 0.00 | 0.00 | 70 | 1008.4 |
| 20260505122537 | 62 | 236 | 2.6 | 6.1 | 0.00 | 0.00 | 0.00 | 70 | 1008.4 |
| 20260505121555 | 62 | 239 | 2.6 | 6.1 | 0.00 | 0.00 | 0.00 | 72 | 1008.5 |
| 20260505120533 | 61 | 237 | 2.6 | 5.2 | 0.00 | 0.00 | 0.00 | 73 | 1008.7 |
| 20260505115532 | 61 | 233 | 3.5 | 7.8 | 0.00 | 0.00 | 0.00 | 73 | 1008.7 |
| 20260505114529 | 61 | 235 | 2.6 | 6.1 | 0.00 | 0.00 | 0.00 | 73 | 1008.9 |
| 20260505113527 | 61 | 246 | 1.7 | 3.5 | 0.00 | 0.00 | 0.00 | 72 | 1008.9 |
| 20260505112525 | 60 | 230 | 1.7 | 5.2 | 0.00 | 0.00 | 0.00 | 71 | 1009.0 |
| 20260505111523 | 60 | 235 | 2.6 | 5.2 | 0.00 | 0.00 | 0.00 | 71 | 1009.1 |
| 20260505110541 | 60 | 231 | 2.6 | 5.2 | 0.00 | 0.00 | 0.00 | 71 | 1009.1 |